User: anonymous   Login
Location: Molveno
(46.1500°N, 10.9667°E)
Time: 22:38:44
(UTC+00:00)
Language:

Cosmos 2360 Rocket - Orbit

View from above orbital plane
View from above orbital plane
View from above satellite
View from above satellite

Ground track
Ground track

The orbit data is extracted from the following two-line orbital elements,

1 25407U 98045B   20269.80649563 -.00000252 +00000-0 -10394-3 0  9995
2 25407 071.0122 046.7014 0007882 197.8246 162.2602 14.15827826145280
Epoch (UTC): 25 September 2020 19:21:21
Eccentricity: 0.0007882
inclination: 71.0122°
perigee height: 834 km
apogee height: 845 km
right ascension of ascending node: 46.7014°
argument of perigee: 197.8246°
revolutions per day: 14.15827826
mean anomaly at epoch: 162.2602°
orbit number at epoch: 14528

The dashed part of the orbit path shows where the satellite is in the earth's shadow,  

DLR